1516305600.24,29703,6.38,71392.3,-10.71,-12.35,-12.35,0,*68
1516305601.5,29704,6.31,71386.5,-10.71,-12.47,-12.35,0,*6A
1516305602.77,29705,6.38,71396.8,-10.71,-12.53,-12.47,0,*6B
1516305604.07,29706,6.38,71396.3,-10.71,-12.53,-12.53,0,*6D
1516305605.28,29707,6.38,71390.8,-10.69,-12.47,-12.43,0,*61
1516305606.52,29708,6.38,71390.5,-10.69,-12.47,-12.53,0,*6F
1516305607.79,29709,6.38,71398.0,-10.69,-12.53,-12.53,0,*6B
1516305609.04,29710,6.38,71404.5,-10.69,-12.47,-12.53,0,*66
1516305610.3,29711,6.38,71410.0,-10.69,-12.57,-12.57,0,*62
1516305611.6,29712,6.38,71416.3,-10.71,-12.53,-12.53,0,*68
1516305612.84,29713,6.38,71426.0,-10.71,-12.47,-12.39,0,*60
1516305614.08,29714,6.38,71420.0,-10.71,-12.47,-12.47,0,*6E
1516305615.32,29715,6.38,71426.8,-10.69,-12.53,-12.39,0,*6A
1516305616.59,29716,6.38,71430.0,-10.67,-12.35,-12.21,0,*6E
1516305617.83,29717,6.38,71428.8,-10.69,-12.39,-12.35,0,*68
1516305619.05,29718,6.38,71428.5,-10.69,-12.39,-12.25,0,*66
1516305620.29,29719,6.38,71436.0,-10.69,-12.35,-12.21,0,*6F
1516305621.53,29720,6.38,71436.0,-10.69,-12.35,-12.21,0,*65
1516305622.78,29721,6.38,71440.3,-10.69,-12.35,-12.25,0,*60
1516305624.03,29722,6.38,71440.8,-10.67,-12.21,-12.21,0,*6C
1516305625.28,29723,6.38,71436.3,-10.67,-12.29,-12.29,0,*6D
1516305626.55,29724,6.38,71446.5,-10.69,-12.35,-12.35,0,*64
1516305627.79,29725,6.38,71440.5,-10.69,-12.25,-12.35,0,*64
1516305629.04,29726,6.38,71446.0,-10.69,-12.35,-12.47,0,*63
1516305630.3,29727,6.38,71454.3,-10.69,-12.35,-12.57,0,*63
1516305631.54,29728,6.38,71460.3,-10.69,-12.35,-12.97,0,*60
1516305632.82,29729,6.38,71442.3,-10.67,-12.65,-13.19,0,*6D
1516305634.05,29730,6.38,71440.3,-10.69,-12.83,-13.51,0,*6F
1516305635.29,29731,6.38,71388.8,-10.69,-13.19,-13.79,0,*66
1516305636.53,29732,6.38,71360.0,-10.69,-13.23,-13.97,0,*6C
1516305637.82,29733,6.38,71320.5,-10.71,-13.37,-14.05,0,*6D
1516305639.11,29734,6.38,71326.3,-10.71,-13.37,-14.05,0,*6A
1516305640.35,29735,6.38,71308.3,-10.71,-13.51,-14.11,0,*6E
1516305641.59,29736,6.38,71312.8,-10.71,-13.65,-14.37,0,*6E
1516305642.86,29737,6.38,71316.3,-10.71,-13.83,-14.37,0,*67
1516305644.14,29738,6.38,71322.5,-10.73,-14.01,-14.47,0,*60
1516305645.41,29739,6.38,71322.3,-10.71,-14.05,-14.19,0,*6C
1516305646.66,29740,6.38,71324.8,-10.73,-14.01,-14.15,0,*68
1516305647.94,29741,6.38,71328.8,-10.73,-13.97,-14.01,0,*64
1516305649.18,29742,6.38,71252.0,-10.73,-13.87,-13.73,0,*64
1516305650.39,29743,6.38,71256.3,-10.73,-13.73,-13.73,0,*6E
1516305651.69,29744,6.38,71290.3,-10.75,-13.61,-13.61,0,*6F
1516305652.89,29745,6.38,71312.0,-10.77,-13.47,-13.47,0,*6C
1516305654.15,29746,6.38,71324.0,-10.75,-13.37,-13.43,0,*6E
1516305655.44,29747,6.38,71358.8,-10.75,-13.61,-13.37,0,*6F
1516305656.7,29748,6.38,71342.8,-10.75,-13.69,-13.29,0,*67
1516305657.97,29749,6.38,71294.5,-10.77,-13.79,-13.33,0,*6E
1516305659.21,29750,6.38,71304.3,-10.75,-13.43,-13.11,0,*6D
1516305660.45,29751,6.38,71294.3,-10.75,-13.55,-13.07,0,*6C
1516305661.68,29752,6.38,71300.5,-10.77,-13.61,-13.07,0,*6A
1516305662.95,29753,6.38,71342.8,-10.75,-13.55,-12.83,0,*63
1516305664.18,29754,6.38,71318.5,-10.77,-13.47,-12.79,0,*60
1516305665.45,29755,6.38,71292.3,-10.77,-13.29,-12.79,0,*69
1516305666.69,29756,6.38,71304.3,-10.77,-13.15,-12.71,0,*6D
1516305667.96,29757,6.38,71262.3,-10.75,-12.89,-12.75,0,*6E
1516305669.19,29758,6.38,71302.8,-10.77,-12.89,-12.79,0,*6F
1516305670.41,29759,6.38,71280.5,-10.77,-12.89,-12.89,0,*61
1516305671.62,29760,6.38,71264.3,-10.77,-12.89,-12.93,0,*60
1516305672.86,29761,6.38,71296.5,-10.77,-12.79,-12.93,0,*6E
1516305674.09,29762,6.38,71302.5,-10.77,-12.65,-12.89,0,*6B
1516305675.31,29763,6.38,71316.5,-10.77,-12.47,-12.89,0,*6A
1516305676.55,29764,6.38,71338.3,-10.79,-12.29,-12.47,0,*69
1516305677.8,29765,6.38,71352.5,-10.79,-12.21,-12.47,0,*60
1516305679.06,29766,6.38,71348.8,-10.77,-12.15,-12.65,0,*6A
1516305680.32,29767,6.38,71370.8,-10.77,-12.35,-12.75,0,*68
1516305681.56,29768,6.38,71364.3,-10.77,-12.29,-12.75,0,*6A
1516305682.82,29769,6.38,71364.8,-10.77,-12.35,-12.65,0,*67
1516305684.09,29770,6.38,71370.8,-10.75,-12.43,-12.75,0,*6D
1516305685.33,29771,6.38,71376.5,-10.77,-12.47,-12.75,0,*6A
1516305686.57,29772,6.38,71376.0,-10.77,-12.35,-12.47,0,*6D
1516305687.83,29773,6.38,71386.5,-10.77,-12.35,-12.35,0,*69
1516305689.05,29774,6.38,71390.0,-10.77,-12.21,-12.21,0,*6E
1516305690.28,29775,6.38,71396.3,-10.77,-12.21,-12.29,0,*67
1516305691.5,29776,6.38,71394.8,-10.77,-12.21,-12.21,0,*6C
1516305692.74,29777,6.38,71408.5,-10.77,-12.07,-12.21,0,*69
1516305693.97,29778,6.38,71412.0,-10.75,-12.03,-12.25,0,*64
1516305695.22,29779,6.38,71390.0,-10.77,-12.07,-12.29,0,*6F
1516305696.45,29780,6.38,71382.0,-10.77,-12.15,-12.43,0,*66
1516305697.71,29781,6.38,71388.5,-10.77,-12.35,-12.61,0,*65
1516305698.99,29782,6.38,71402.3,-10.75,-12.39,-12.71,0,*69
1516305700.22,29783,6.38,71400.8,-10.77,-12.43,-12.75,0,*63
1516305701.46,29784,6.38,71336.8,-10.77,-12.39,-12.71,0,*6D
1516305702.7,29785,6.38,71306.0,-10.77,-12.65,-12.93,0,*69
1516305703.93,29786,6.38,71272.8,-10.77,-12.75,-13.07,0,*67
1516305705.17,29787,6.38,71332.5,-10.77,-12.75,-13.15,0,*65
1516305706.43,29788,6.38,71312.3,-10.77,-12.75,-13.01,0,*6F
1516305707.68,29789,6.38,71334.8,-10.77,-12.79,-13.01,0,*62
1516305708.91,29790,6.38,71324.3,-10.77,-12.89,-13.01,0,*65
1516305710.12,29791,6.38,71336.3,-10.77,-12.89,-13.07,0,*62
1516305711.38,29792,6.38,71368.8,-10.77,-12.65,-12.75,0,*67
1516305712.65,29793,6.38,71376.5,-10.77,-12.75,-12.79,0,*6B
1516305713.91,29794,6.38,71388.8,-10.77,-12.57,-12.61,0,*65
1516305715.15,29795,6.38,71384.5,-10.79,-12.47,-12.47,0,*6F
1516305716.42,29796,6.38,71378.3,-10.79,-12.35,-12.43,0,*6D
1516305717.67,29797,6.38,71372.3,-10.79,-12.21,-12.43,0,*69
1516305718.88,29798,6.38,71394.0,-10.77,-12.29,-12.43,0,*60
1516305720.11,29799,6.38,71378.8,-10.77,-12.43,-12.61,0,*6D
1516305721.35,29800,6.38,71376.5,-10.77,-12.47,-12.75,0,*63
1516305722.62,29801,6.38,71394.8,-10.79,-12.43,-12.75,0,*68
1516305723.86,29802,6.38,71408.3,-10.79,-12.47,-12.89,0,*6C
1516305725.1,29803,6.38,71382.8,-10.81,-12.53,-13.07,0,*68
1516305726.36,29804,6.38,71398.5,-10.79,-12.65,-13.07,0,*6D
1516305727.6,29805,6.38,71400.3,-10.77,-12.75,-13.15,0,*60
1516305728.84,29806,6.38,71388.3,-10.77,-12.79,-13.19,0,*63
1516305730.11,29807,6.38,71394.0,-10.79,-12.93,-13.33,0,*60
1516305731.37,29808,6.38,71402.5,-10.79,-13.07,-13.29,0,*68
1516305732.63,29809,6.38,71394.8,-10.79,-13.15,-13.29,0,*6A
1516305733.89,29810,6.38,71394.8,-10.79,-13.15,-13.29,0,*62
1516305735.13,29811,6.38,71398.3,-10.79,-13.07,-13.19,0,*63
1516305736.37,29812,6.38,71404.8,-10.79,-13.15,-13.15,0,*6F
1516305737.62,29813,6.38,71410.8,-10.79,-13.07,-13.01,0,*68
1516305738.89,29814,6.38,71410.8,-10.79,-13.01,-12.93,0,*63
1516305740.11,29815,6.38,71408.3,-10.81,-12.97,-12.97,0,*6F
1516305741.33,29816,6.38,71406.3,-10.81,-13.11,-13.07,0,*6B
1516305742.57,29817,6.38,71400.3,-10.79,-13.07,-12.89,0,*6D
1516305743.86,29818,6.38,71400.8,-10.79,-13.01,-12.79,0,*6B
1516305745.15,29819,6.38,71404.3,-10.79,-13.01,-12.61,0,*63
1516305746.42,29820,6.38,71408.3,-10.79,-12.89,-12.61,0,*68
1516305747.68,29821,6.38,71422.0,-10.79,-13.07,-12.79,0,*67
1516305748.95,29822,6.38,71432.0,-10.79,-13.15,-12.79,0,*67
1516305750.19,29823,6.38,71432.5,-10.79,-13.15,-12.93,0,*62
1516305751.46,29824,6.38,71432.0,-10.79,-13.29,-12.93,0,*6A
1516305752.72,29825,6.38,71432.8,-10.79,-13.33,-13.07,0,*6C
1516305753.96,29826,6.38,71448.8,-10.81,-13.47,-13.33,0,*6C
1516305755.22,29827,6.38,71456.0,-10.79,-13.47,-13.33,0,*6A
1516305756.48,29828,6.38,71458.5,-10.79,-13.47,-13.61,0,*62
1516305757.74,29829,6.38,71460.8,-10.79,-13.73,-13.87,0,*6C
1516305758.98,29830,6.38,71456.3,-10.79,-13.93,-14.15,0,*66
1516305760.23,29831,6.38,71456.5,-10.79,-14.19,-14.33,0,*66
1516305761.44,29832,6.38,71448.8,-10.77,-14.61,-14.89,0,*65
1516305762.66,29833,6.38,71430.0,-10.81,-15.25,-15.15,0,*68
1516305763.94,29834,6.38,71414.5,-10.79,-15.75,-15.39,0,*63
1516305765.22,29835,6.38,71412.3,-10.79,-15.81,-15.35,0,*65
1516305766.5,29836,6.38,71388.3,-10.79,-16.17,-15.53,0,*6A
1516305767.77,29837,6.38,71364.0,-10.81,-16.13,-15.43,0,*69
1516305769.03,29838,6.38,71356.0,-10.81,-16.09,-15.25,0,*6D
1516305770.3,29839,6.38,71376.8,-10.81,-16.27,-15.35,0,*61
1516305771.54,29840,6.38,71338.8,-10.81,-16.27,-15.25,0,*6E
1516305772.76,29841,6.38,71332.0,-10.81,-16.45,-15.07,0,*6B
1516305774.01,29842,6.38,71312.3,-10.81,-16.41,-14.83,0,*61
1516305775.25,29843,6.38,71338.5,-10.79,-16.03,-14.33,0,*6A
1516305776.52,29844,6.38,71324.5,-10.83,-15.95,-13.97,0,*6D
1516305777.73,29845,6.38,71314.3,-10.81,-15.25,-13.65,0,*68
1516305779.0,29846,6.38,71330.5,-10.81,-14.79,-13.37,0,*64
1516305780.29,29847,6.38,71322.8,-10.79,-14.43,-13.29,0,*64
1516305781.56,29848,6.38,71338.8,-10.87,-14.01,-13.11,0,*67
1516305782.8,29849,6.38,71332.5,-10.83,-13.69,-12.93,0,*60
1516305784.07,29850,6.38,71354.3,-10.83,-13.47,-12.79,0,*60
1516305785.34,29851,6.38,71336.8,-10.87,-13.23,-12.71,0,*6F
1516305786.62,29852,6.38,71326.8,-10.83,-13.11,-12.71,0,*69
1516305787.88,29853,6.38,71338.3,-10.83,-12.93,-12.61,0,*62
1516305789.17,29854,6.38,71342.0,-10.83,-12.79,-12.61,0,*61
1516305790.46,29855,6.38,71340.0,-10.83,-12.65,-12.53,0,*6C
1516305791.74,29856,6.38,71342.3,-10.83,-12.53,-12.39,0,*66
1516305793.01,29857,6.38,71354.3,-10.83,-12.53,-12.39,0,*67
1516305794.25,29858,6.38,71358.8,-10.83,-12.47,-12.39,0,*6D
1516305795.49,29859,6.38,71362.5,-10.87,-12.39,-12.39,0,*61
1516305796.76,29860,6.38,71368.5,-10.83,-12.35,-12.21,0,*6A
1516305798.05,29861,6.38,71376.0,-10.83,-12.11,-12.11,0,*6E
1516305799.32,29862,6.38,71382.5,-10.83,-12.21,-12.11,0,*6E
1516305800.57,29863,6.38,71394.5,-10.81,-12.11,-12.21,0,*6D
1516305801.84,29864,6.38,71398.8,-10.83,-12.11,-12.21,0,*68
1516305803.13,29865,6.38,71404.3,-10.83,-12.11,-12.11,0,*6A
1516305804.41,29866,6.38,71406.0,-10.83,-12.11,-12.21,0,*6A
1516305805.63,29867,6.38,71402.5,-10.81,-12.25,-12.25,0,*6A
1516305806.9,29868,6.38,71394.3,-10.83,-12.21,-12.35,0,*62
1516305808.13,29869,6.38,71398.5,-10.81,-12.21,-12.39,0,*6D
1516305809.35,29870,6.38,71398.8,-10.81,-12.21,-12.47,0,*6C
1516305810.62,29871,6.38,71404.5,-10.81,-12.35,-12.53,0,*6D
1516305811.87,29872,6.38,71416.3,-10.81,-12.25,-12.83,0,*62
1516305813.08,29873,6.38,71426.3,-10.81,-12.47,-13.11,0,*6D
1516305814.32,29874,6.38,71432.5,-10.79,-12.47,-13.43,0,*6A
1516305815.59,29875,6.38,71450.8,-10.81,-12.79,-13.97,0,*68
1516305816.81,29876,6.38,71442.5,-10.81,-13.23,-14.65,0,*6F
1516305818.06,29877,6.38,71450.3,-10.81,-13.69,-15.39,0,*68
1516305819.31,29878,6.38,71474.0,-10.81,-14.23,-16.27,0,*62
1516305820.58,29879,6.38,71468.5,-10.81,-15.35,-17.59,0,*6D
1516305821.82,29880,6.38,71452.8,-10.81,-16.75,-19.23,0,*6F
1516305823.04,29881,6.38,71416.8,-10.81,-18.21,-20.05,0,*6F
1516305824.28,29882,6.38,71414.3,-10.81,-19.41,-20.39,0,*64
1516305825.53,29883,6.38,71408.5,-10.81,-20.19,-20.25,0,*6F
1516305826.82,29884,6.38,71402.8,-10.83,-20.19,-19.57,0,*65
1516305828.05,29885,6.38,71398.0,-10.81,-19.85,-18.79,0,*64
1516305829.35,29886,6.38,71390.3,-10.83,-19.27,-17.93,0,*66
1516305830.6,29887,6.38,71376.3,-10.87,-18.69,-17.69,0,*6D
1516305831.87,29888,6.38,71356.0,-10.83,-18.07,-17.45,0,*60
1516305833.12,29889,6.38,71350.0,-10.83,-17.79,-17.31,0,*64
1516305834.41,29890,6.38,71350.8,-10.83,-17.63,-17.03,0,*66
1516305835.71,29891,6.38,71346.3,-10.87,-17.55,-17.07,0,*62
1516305837.01,29892,6.38,71350.5,-10.87,-17.79,-17.07,0,*6F
1516305838.27,29893,6.38,71348.0,-10.87,-17.93,-16.93,0,*66
1516305839.54,29894,6.38,71346.3,-10.87,-17.97,-16.59,0,*63
1516305840.81,29895,6.38,71350.5,-10.87,-17.83,-16.27,0,*6E
1516305842.08,29896,6.38,71338.5,-10.87,-17.83,-15.89,0,*6A
1516305843.33,29897,6.38,71336.5,-10.83,-17.35,-15.25,0,*64
1516305844.62,29898,6.38,71340.0,-10.83,-17.11,-14.97,0,*65
1516305845.88,29899,6.38,71340.3,-10.87,-16.93,-14.75,0,*67
1516305847.17,29900,6.38,71312.5,-10.87,-16.65,-14.43,0,*6A
1516305848.47,29901,6.38,71322.0,-10.87,-16.17,-14.01,0,*68
1516305849.73,29902,6.38,71324.8,-10.87,-15.63,-13.61,0,*6A
1516305850.97,29903,6.38,71338.5,-10.87,-15.15,-13.51,0,*69
1516305852.24,29904,6.38,71356.0,-10.87,-14.43,-13.15,0,*6C
1516305853.48,29905,6.38,71374.0,-10.89,-13.87,-12.97,0,*67
1516305854.7,29906,6.38,71384.3,-10.89,-13.51,-12.89,0,*60
1516305855.92,29907,6.38,71378.5,-10.89,-13.23,-12.89,0,*64
1516305857.15,29908,6.38,71380.8,-10.89,-13.11,-13.01,0,*6B
1516305858.39,29909,6.38,71382.3,-10.89,-12.97,-13.29,0,*6F
1516305859.66,29910,6.38,71434.0,-10.91,-13.01,-13.65,0,*68
1516305860.9,29911,6.38,71312.8,-10.89,-13.29,-14.29,0,*65
1516305862.17,29912,6.38,71272.8,-10.87,-13.97,-15.11,0,*67
1516305863.43,29913,6.38,71278.3,-10.87,-14.23,-15.25,0,*69
1516305864.7,29914,6.38,71236.3,-10.87,-14.37,-15.39,0,*66
1516305866.0,29915,6.38,71200.0,-10.87,-14.75,-15.39,0,*61
1516305867.26,29916,6.38,71204.5,-10.89,-14.75,-15.01,0,*67
1516305868.51,29917,6.38,71244.3,-10.89,-14.51,-14.61,0,*67
1516305869.73,29918,6.38,71280.8,-10.89,-14.15,-14.15,0,*6B
1516305871.0,29919,6.38,71296.5,-10.89,-13.87,-14.01,0,*63
1516305872.24,29920,6.38,71284.5,-10.89,-13.69,-14.01,0,*69
1516305873.48,29921,6.38,71258.0,-10.91,-13.93,-14.19,0,*6D
1516305874.73,29922,6.38,71260.0,-10.91,-14.15,-14.33,0,*6F
1516305876.01,29923,6.38,71182.5,-10.87,-14.75,-14.75,0,*6D
1516305877.25,29924,6.38,71252.0,-10.89,-15.01,-14.61,0,*63
1516305878.46,29925,6.38,71276.0,-10.89,-14.61,-14.15,0,*66
1516305879.73,29926,6.38,71292.5,-10.89,-14.55,-14.01,0,*67
1516305880.99,29927,6.38,71304.5,-10.89,-14.55,-13.87,0,*6F
1516305882.23,29928,6.38,71316.3,-10.89,-14.43,-13.73,0,*6C
1516305883.44,29929,6.38,71326.3,-10.89,-14.29,-13.73,0,*61
1516305884.69,29930,6.38,71324.8,-10.89,-14.11,-13.61,0,*61
1516305885.94,29931,6.38,71382.5,-10.89,-14.15,-13.61,0,*64
1516305887.16,29932,6.38,71334.8,-10.89,-14.15,-13.51,0,*64
1516305888.37,29933,6.38,71342.8,-10.89,-14.11,-13.43,0,*62
1516305889.62,29934,6.38,71356.8,-10.89,-14.01,-13.43,0,*64
1516305890.86,29935,6.38,71360.5,-10.89,-13.83,-13.23,0,*6E
1516305892.08,29936,6.38,71376.5,-10.89,-13.73,-12.97,0,*6C
1516305893.35,29937,6.38,71372.5,-10.87,-13.69,-12.83,0,*6D
1516305894.59,29938,6.38,71364.0,-10.89,-13.69,-12.71,0,*61
1516305895.87,29939,6.38,71392.8,-10.89,-13.61,-12.71,0,*68
1516305897.11,29940,6.38,71372.5,-10.89,-13.51,-12.57,0,*61
1516305898.35,29941,6.38,71348.0,-10.89,-13.51,-12.65,0,*61
1516305899.6,29942,6.38,71328.3,-10.89,-13.51,-12.57,0,*63
1516305900.84,29943,6.38,71352.5,-10.89,-13.23,-12.57,0,*67
1516305902.08,29944,6.38,71354.8,-10.89,-13.23,-12.57,0,*60
1516305903.3,29945,6.38,71350.3,-10.89,-12.97,-12.43,0,*6A
1516305904.54,29946,6.38,71342.5,-10.89,-12.89,-12.53,0,*67
1516305905.8,29947,6.38,71352.3,-10.89,-12.83,-12.53,0,*6C
1516305907.05,29948,6.38,71346.0,-10.89,-12.71,-12.43,0,*6F
1516305908.34,29949,6.38,71352.5,-10.91,-12.57,-12.53,0,*62
1516305909.58,29950,6.38,71336.8,-10.89,-12.43,-12.53,0,*66
1516305910.85,29951,6.38,71320.3,-10.89,-12.53,-12.53,0,*66
1516305912.11,29952,6.38,71318.0,-10.89,-12.65,-12.65,0,*65
1516305913.4,29953,6.38,71338.3,-10.87,-12.65,-12.57,0,*6B
1516305914.64,29954,6.38,71364.0,-10.87,-12.43,-12.39,0,*60
1516305915.88,29955,6.38,71372.8,-10.87,-12.29,-12.29,0,*6C
1516305917.12,29956,6.38,71372.8,-10.87,-12.39,-12.25,0,*62
1516305918.38,29957,6.38,71404.0,-10.87,-12.43,-12.15,0,*6D
1516305919.65,29958,6.38,71422.8,-10.87,-12.29,-12.11,0,*6A
1516305920.89,29959,6.38,71408.3,-10.87,-12.43,-12.25,0,*60
1516305922.13,29960,6.38,71402.3,-10.87,-12.43,-12.25,0,*6A
1516305923.4,29961,6.38,71420.3,-10.83,-12.35,-12.25,0,*6E
1516305924.65,29962,6.38,71396.5,-10.83,-12.25,-12.21,0,*68
1516305925.92,29963,6.38,71390.3,-10.83,-12.25,-12.35,0,*6C
1516305927.17,29964,6.38,71398.3,-10.87,-12.25,-12.29,0,*62
1516305928.43,29965,6.38,71412.0,-10.87,-12.15,-12.39,0,*61
1516305929.71,29966,6.38,71414.3,-10.87,-12.29,-12.53,0,*61
1516305931.0,29967,6.38,71400.8,-10.87,-12.15,-12.53,0,*6F
1516305932.25,29968,6.38,71410.3,-10.83,-12.21,-12.47,0,*66
1516305933.5,29969,6.38,71406.3,-10.83,-12.21,-12.47,0,*67
1516305934.77,29970,6.38,71402.3,-10.87,-12.39,-12.71,0,*67
1516305936.03,29971,6.38,71406.8,-10.87,-12.29,-12.65,0,*62
1516305937.29,29972,6.38,71404.3,-10.87,-12.39,-12.65,0,*60
1516305938.56,29973,6.38,71428.0,-10.83,-12.25,-12.61,0,*6C
1516305939.86,29974,6.38,71438.0,-10.83,-12.35,-12.71,0,*6B
1516305941.1,29975,6.38,71416.5,-10.83,-12.47,-12.97,0,*67
1516305942.37,29976,6.38,71410.8,-10.83,-12.53,-13.11,0,*6E
1516305943.63,29977,6.38,71392.5,-10.87,-12.65,-13.15,0,*6A
1516305944.9,29978,6.38,71328.8,-10.87,-12.65,-13.11,0,*61
1516305946.16,29979,6.38,71306.3,-10.83,-12.71,-13.07,0,*66
1516305947.43,29980,6.38,71294.8,-10.87,-12.75,-12.97,0,*68
1516305948.7,29981,6.38,71310.5,-10.87,-12.71,-12.89,0,*62
1516305949.97,29982,6.38,71310.3,-10.83,-12.71,-12.93,0,*6E
1516305951.26,29983,6.38,71328.0,-10.87,-12.75,-12.83,0,*6E
1516305952.56,29984,6.38,71308.5,-10.87,-12.57,-12.71,0,*64
1516305953.84,29985,6.38,71288.8,-10.87,-12.65,-12.65,0,*61
1516305955.13,29986,6.38,71308.3,-10.87,-12.65,-12.57,0,*63
1516305956.43,29987,6.38,71306.3,-10.83,-12.53,-12.53,0,*67
1516305957.7,29988,6.38,71308.3,-10.87,-12.57,-12.43,0,*69
1516305958.99,29989,6.38,71320.5,-10.87,-12.53,-12.53,0,*6D
1516305960.23,29990,6.38,71324.0,-10.87,-12.39,-12.43,0,*68
1516305961.53,29991,6.38,71322.3,-10.87,-12.53,-12.53,0,*64
1516305962.77,29992,6.38,71324.8,-10.87,-12.43,-12.39,0,*6A
1516305964.01,29993,6.38,71316.8,-10.87,-12.43,-12.29,0,*6A
1516305965.25,29994,6.38,71322.0,-10.87,-12.43,-12.29,0,*6D
1516305966.49,29995,6.38,71332.8,-10.87,-12.43,-12.39,0,*6D
1516305967.76,29996,6.38,71346.0,-10.83,-12.47,-12.35,0,*62
1516305969.03,29997,6.38,71362.8,-10.87,-12.53,-12.39,0,*6E
1516305970.3,29998,6.38,71360.8,-10.87,-12.65,-12.43,0,*69
1516305971.56,29999,6.38,71372.8,-10.87,-12.57,-12.29,0,*65
1516305972.83,30000,6.38,71374.5,-10.87,-12.65,-12.29,0,*65
1516305974.1,30001,6.38,71378.8,-10.83,-12.47,-12.11,0,*6B
1516305975.37,30002,6.38,71388.3,-10.87,-12.53,-12.25,0,*6E
1516305976.66,30003,6.38,71396.0,-10.87,-12.53,-12.15,0,*6C
1516305977.91,30004,6.38,71402.0,-10.87,-12.29,-12.03,0,*61
1516305979.15,30005,6.38,71402.5,-10.87,-12.39,-12.03,0,*61
1516305980.44,30006,6.38,71406.3,-10.87,-12.15,-11.97,0,*62
1516305981.73,30007,6.38,71414.5,-10.83,-12.07,-11.93,0,*60
1516305983.03,30008,6.38,71418.0,-10.87,-12.11,-11.89,0,*67
1516305984.32,30009,6.38,71416.8,-10.83,-11.97,-11.93,0,*64
1516305985.62,30010,6.38,71424.3,-10.87,-11.89,-11.89,0,*6C
1516305986.9,30011,6.38,71422.3,-10.83,-11.85,-11.81,0,*6D
1516305988.19,30012,6.38,71420.8,-10.83,-11.81,-11.81,0,*6A
1516305989.47,30013,6.38,71422.5,-10.83,-11.81,-11.81,0,*6B
1516305990.76,30014,6.38,71418.5,-10.83,-11.73,-11.85,0,*65
1516305992.04,30015,6.38,71414.8,-10.83,-11.81,-11.85,0,*69
1516305993.33,30016,6.38,71410.0,-10.83,-11.81,-11.85,0,*6A
1516305994.62,30017,6.38,71412.3,-10.83,-11.81,-11.93,0,*6C
1516305995.91,30018,6.38,71418.8,-10.83,-11.85,-11.97,0,*63
1516305997.2,30019,6.38,71418.3,-10.83,-11.85,-11.97,0,*62
1516305998.46,30020,6.38,71418.8,-10.81,-11.97,-11.97,0,*69
1516305999.74,30021,6.38,71422.5,-10.83,-12.07,-12.21,0,*6E
1516306001.03,30022,6.38,71420.0,-10.83,-12.07,-12.11,0,*6E
1516306002.28,30023,6.38,71416.8,-10.81,-12.11,-12.21,0,*69
1516306003.52,30024,6.38,71420.3,-10.81,-12.11,-12.21,0,*6E
1516306004.79,30025,6.38,71424.0,-10.81,-12.11,-12.11,0,*6C
1516306006.06,30026,6.38,71418.3,-10.81,-12.07,-12.11,0,*68
1516306007.33,30027,6.38,71404.3,-10.81,-12.07,-12.07,0,*6E
1516306008.6,30028,6.38,71400.0,-10.81,-12.11,-11.97,0,*6C
1516306009.87,30029,6.38,71400.5,-10.81,-11.97,-11.93,0,*64
1516306011.14,30030,6.38,71404.3,-10.81,-11.97,-11.93,0,*6C
1516306012.41,30031,6.38,71412.0,-10.81,-11.97,-11.93,0,*6D
1516306013.7,30032,6.38,71408.8,-10.83,-11.97,-11.85,0,*6B
1516306014.97,30033,6.38,71402.0,-10.81,-12.07,-11.93,0,*65
1516306016.23,30034,6.38,71404.5,-10.81,-11.97,-11.85,0,*6F
1516306017.5,30035,6.38,71408.0,-10.81,-11.85,-11.81,0,*69
1516306018.77,30036,6.38,71406.5,-10.81,-11.93,-11.81,0,*6D
1516306020.04,30037,6.38,71408.5,-10.81,-11.93,-11.85,0,*68
1516306021.33,30038,6.38,71412.0,-10.79,-11.77,-11.67,0,*66
1516306022.59,30039,6.38,71420.3,-10.81,-11.73,-11.81,0,*6C
1516306023.86,30040,6.38,71426.0,-10.81,-11.85,-11.85,0,*6F
1516306025.13,30041,6.38,71430.8,-10.81,-11.85,-11.93,0,*69
1516306026.4,30042,6.38,71428.0,-10.79,-11.93,-12.03,0,*60
1516306027.66,30043,6.38,71436.3,-10.81,-11.97,-11.97,0,*6C
1516306028.95,30044,6.38,71438.0,-10.79,-11.81,-11.93,0,*6F
1516306030.23,30045,6.38,71440.8,-10.81,-11.93,-12.07,0,*64
1516306031.47,30046,6.38,71446.5,-10.81,-11.97,-12.21,0,*67
1516306032.7,30047,6.38,71436.8,-10.81,-12.21,-12.39,0,*61
1516306033.97,30048,6.38,71354.0,-10.79,-12.29,-12.35,0,*6D
1516306035.22,30049,6.38,71400.5,-10.81,-12.47,-12.53,0,*63
1516306036.46,30050,6.38,71390.5,-10.81,-12.47,-12.61,0,*6A
1516306037.75,30051,6.38,71368.0,-10.79,-12.65,-12.75,0,*69
1516306039.01,30052,6.38,71348.5,-10.81,-12.61,-12.65,0,*68
1516306040.27,30053,6.38,71382.8,-10.81,-12.65,-12.65,0,*6D
1516306041.54,30054,6.38,71334.8,-10.81,-12.79,-12.61,0,*63
1516306042.81,30055,6.38,71368.0,-10.87,-12.89,-12.75,0,*6E
1516306044.08,30056,6.38,71378.3,-10.83,-12.97,-12.79,0,*6A
1516306045.35,30057,6.38,71340.3,-10.83,-12.97,-12.79,0,*6B
1516306046.62,30058,6.38,71328.8,-10.83,-13.07,-12.79,0,*6C
1516306047.88,30059,6.38,71324.0,-10.83,-12.93,-12.61,0,*68
1516306049.15,30060,6.38,71296.5,-10.83,-12.97,-12.53,0,*67
1516306050.45,30061,6.38,71292.5,-10.83,-12.71,-12.53,0,*6E
1516306051.72,30062,6.38,71306.0,-10.83,-12.65,-12.47,0,*6D
1516306052.96,30063,6.38,71326.8,-10.83,-12.47,-12.25,0,*68
1516306054.19,30064,6.38,71330.8,-10.83,-12.39,-12.25,0,*66
1516306055.43,30065,6.38,71346.3,-10.87,-12.43,-12.25,0,*6E
1516306056.7,30066,6.38,71360.0,-10.83,-12.39,-12.35,0,*65
1516306057.97,30067,6.38,71396.5,-10.83,-12.39,-12.35,0,*64
1516306059.24,30068,6.38,71392.8,-10.83,-12.35,-12.21,0,*62
1516306060.51,30069,6.38,71396.8,-10.83,-12.35,-12.21,0,*63
1516306061.78,30070,6.38,71382.0,-10.83,-12.25,-12.11,0,*69
1516306063.03,30071,6.38,71380.3,-10.83,-12.25,-12.21,0,*6B
1516306064.27,30072,6.38,71376.0,-10.83,-12.25,-12.25,0,*6C
1516306065.52,30073,6.38,71372.3,-10.83,-12.25,-12.25,0,*6D
1516306066.78,30074,6.38,71356.0,-10.83,-12.35,-12.25,0,*6B
1516306068.07,30075,6.38,71354.5,-10.87,-12.15,-12.15,0,*6F
1516306069.32,30076,6.38,71346.8,-10.87,-12.29,-12.25,0,*60
1516306070.59,30077,6.38,71360.8,-10.83,-12.35,-12.25,0,*68
1516306071.83,30078,6.38,71352.8,-10.83,-12.25,-12.25,0,*66
1516306073.08,30079,6.38,71332.5,-10.83,-12.21,-12.25,0,*63
1516306074.33,30080,6.38,71328.5,-10.83,-12.25,-12.21,0,*65
1516306075.6,30081,6.38,71338.8,-10.83,-12.25,-12.11,0,*67
1516306076.89,30082,6.38,71358.0,-10.83,-12.11,-12.11,0,*63
1516306078.18,30083,6.38,71342.5,-10.83,-12.11,-12.07,0,*65
1516306079.47,30084,6.38,71336.5,-10.83,-11.97,-11.97,0,*65
1516306080.77,30085,6.38,71350.5,-10.83,-12.07,-12.07,0,*64
1516306082.06,30086,6.38,71360.3,-10.87,-12.15,-12.11,0,*67
1516306083.36,30087,6.38,71346.5,-10.83,-12.07,-12.07,0,*66
1516306084.65,30088,6.38,71358.3,-10.83,-12.11,-12.07,0,*6E
1516306085.94,30089,6.38,71354.8,-10.87,-12.15,-12.11,0,*68
1516306087.24,30090,6.38,71352.5,-10.83,-12.11,-12.11,0,*60
1516306088.53,30091,6.38,71356.8,-10.83,-11.97,-11.93,0,*65
1516306089.82,30092,6.38,71360.8,-10.83,-11.97,-11.93,0,*66
1516306091.11,30093,6.38,71356.0,-10.83,-11.85,-11.85,0,*63
1516306092.41,30094,6.38,71350.8,-10.83,-11.85,-11.93,0,*63
1516306093.7,30095,6.38,71344.5,-10.83,-11.93,-11.85,0,*62
1516306094.99,30096,6.38,71340.5,-10.87,-11.97,-11.97,0,*62
1516306096.29,30097,6.38,71336.5,-10.83,-11.85,-11.93,0,*60
1516306097.58,30098,6.38,71336.3,-10.87,-11.89,-11.89,0,*6C
1516306098.88,30099,6.38,71348.8,-10.83,-11.93,-11.93,0,*69
1516306100.18,30100,6.38,71348.3,-10.83,-11.85,-11.93,0,*6F
1516306101.48,30101,6.38,71342.3,-10.83,-11.93,-11.93,0,*69
1516306102.77,30102,6.38,71314.8,-10.83,-12.07,-12.07,0,*6A